Regional Weather Roundup
Issued by NWS

Home | Current Version | Previous Version | Graphics & Text | Print | Product List | Glossary On
Versions: 1 2 3 4 5 6 7 8 9 10 11 12 13 14 15 16 17 18 19 20 21 22 23 24 25 26 27 28 29 30 31 32 33 34 35 36 37 38 39 40 41 42 43 44 45 46 47 48 49 50
000
ASUS43 KLMK 172010
RWRKY
KENTUCKY REGIONAL WEATHER ROUNDUP
NATIONAL WEATHER SERVICE LOUISVILLE KY
300 PM EST WED DEC 17 2014

NOTE "FAIR" INDICATES FEW OR NO CLOUDS BELOW 12,000 FEET
WITH NO SIGNIFICANT WEATHER AND/OR OBSTRUCTIONS TO VISIBILITY.

KYZ001>023-026-027-061>063-070>075-172100-
WESTERN AND SOUTH CENTRAL KENTUCKY

CITY           SKY/WX    TMP DP  RH WIND       PRES   REMARKS
PADUCAH        MOSUNNY   39  26  59 CALM      30.26F
HENDERSON      CLOUDY    36  25  64 W3        30.27S
OWENSBORO      CLOUDY    35  27  73 VRB6      30.27S WCI  30
HOPKINSVILLE   SUNNY     40  27  59 SW5       30.25F
BOWLING GREEN  SUNNY     41  27  57 W7        30.25F
GLASGOW        SUNNY     40  28  62 W7        30.23S
$$

KYZ024-025-028>034-038-045-046-053-172100-
NORTH CENTRAL KENTUCKY

CITY           SKY/WX    TMP DP  RH WIND       PRES   REMARKS
LOUISVILLE/SDF PTSUNNY   35  25  66 VRB6      30.24F WCI  30
LOUISVILLE/LOU CLOUDY    34  24  67 W8        30.24F WCI  27
FORT KNOX      CLOUDY    34  26  71 W6        30.21F WCI  29
$$

KYZ035>037-039>044-047>052-055>060-089>105-172100-
NORTHEAST KENTUCKY

CITY           SKY/WX    TMP DP  RH WIND       PRES   REMARKS
LEXINGTON      CLOUDY    35  26  69 W8        30.20F WCI  29
COVINGTON      CLOUDY    32  22  66 W8        30.20S WCI  25
FRANKFORT      CLOUDY    34  26  72 SW8       30.20F WCI  27
$$

KYZ054-064>069-076>088-106>120-172100-
SOUTHEAST KENTUCKY

CITY           SKY/WX    TMP DP  RH WIND       PRES   REMARKS
JACKSON        CLOUDY    38  28  67 VRB6      30.17S WCI  33
LONDON         PTSUNNY   38  28  67 W6        30.20R WCI  33
SOMERSET       PTSUNNY   36  28  75 W5        30.23R WCI  32
MIDDLESBORO    MOSUNNY   43  31  62 NW6       30.18S
MONTICELLO     PTCLDY    39  30  70 W3        30.24S
$$




USA.gov is the U.S. government's official web portal to all federal, state and local government web resources and services.